Powrót do katalogu

STARLINK-30967

AktywnyŁącznośćVLEO
NORAD 58416·PAYLOAD·🇺🇸 United States

Wystrzelony Nov 22, 2023 z Cape Canaveral Space Force Station

Loading…

Następne Przeloty (najbliższe 24 godziny)

TLE

ŚwieżeSource: CelesTrak SupGP

Epoka: Sep 15, 2026, 02:43 UTC

1 58416C 23180Q   26258.11368056 -.00062225  00000+0 -22534-2 0  2585
2 58416  43.0024  62.7818 0001548 263.8745 175.0161 15.27614623    13

Śledź STARLINK-30967 w czasie rzeczywistym z AllMySat

Download on the App Store